This is the latest recevied weather packets stored in our database for station/object DH8TOM-3. If no packets are shown the sender has not sent any weather packets the latest 10 day(s).
| Time | Temp. | Humidity | Pressure | Rain* | Wind** | Luminosity | Snow |
|---|---|---|---|---|---|---|---|
| 1777728190 | 23.33° C | 40% | 1018.3 hPa | 0 mm | - | - | - |
| 1777727900 | 22.78° C | 42% | 1018.5 hPa | 0 mm | - | - | - |
| 1777727287 | 22.78° C | 40% | 1018.7 hPa | 0 mm | - | - | - |
| 1777726685 | 22.78° C | 41% | 1018.8 hPa | 0 mm | - | - | - |
| 1777725481 | 22.78° C | 39% | 1019.1 hPa | 0 mm | - | - | - |
| 1777724879 | 22.22° C | 41% | 1019.3 hPa | 0 mm | - | - | - |
| 1777724277 | 22.22° C | 40% | 1019.5 hPa | 0 mm | - | - | - |
| 1777723976 | 22.22° C | 40% | 1019.5 hPa | 0 mm | - | - | - |
| 1777723676 | 22.22° C | 40% | 1019.5 hPa | 0 mm | - | - | - |
| 1777723376 | 22.22° C | 42% | 1019.6 hPa | 0 mm | - | - | - |
| 1777723073 | 22.22° C | 42% | 1019.6 hPa | 0 mm | - | - | - |
| 1777722772 | 22.22° C | 40% | 1019.8 hPa | 0 mm | - | - | - |
| 1777722471 | 22.22° C | 40% | 1019.8 hPa | 0 mm | - | - | - |
| 1777722170 | 22.22° C | 43% | 1019.9 hPa | 0 mm | - | - | - |
| 1777721870 | 22.22° C | 43% | 1019.9 hPa | 0 mm | - | - | - |
| 1777721568 | 22.22° C | 43% | 1020.1 hPa | 0 mm | - | - | - |
| 1777721278 | 22.22° C | 43% | 1020.1 hPa | 0 mm | - | - | - |
| 1777720966 | 22.22° C | 42% | 1020.2 hPa | 0 mm | - | - | - |
| 1777720665 | 22.22° C | 42% | 1020.2 hPa | 0 mm | - | - | - |
| 1777720364 | 22.22° C | 43% | 1020.3 hPa | 0 mm | - | - | - |
| 1777720063 | 22.22° C | 43% | 1020.3 hPa | 0 mm | - | - | - |
| 1777719763 | 22.22° C | 43% | 1020.5 hPa | 0 mm | - | - | - |
| 1777719461 | 22.22° C | 43% | 1020.5 hPa | 0 mm | - | - | - |
| 1777719160 | 22.22° C | 42% | 1020.5 hPa | 0 mm | - | - | - |
| 1777718859 | 22.22° C | 42% | 1020.5 hPa | 0 mm | - | - | - |
* Rain latest hour (hover to see other rain measurements)
** Current wind speed in m/s (hover to see current wind gust speed)